Change the Weather History Date:

Thursday, May 31, 2012

  Actual Average Record
Temperature  
Mean Temperature 82 °F -  
Max Temperature 84 °F 88 °F 95 °F (1953)
Min Temperature 79 °F 72 °F 64 °F (1984)
Cooling Degree Days 16    
Growing Degree Days 32 (Base 50)    
Moisture  
Dew Point 73 °F    
Average Humidity 76    
Maximum Humidity 88    
Minimum Humidity 65    
Precipitation  
Precipitation 0.00 in - - ()
Sea Level Pressure  
Sea Level Pressure 29.89 in    
Wind  
Wind Speed 6 mph (WSW)    
Max Wind Speed 14 mph    
Max Gust Speed 20 mph    
Visibility 10 miles    
Events      
Averages and records for this station are not official NWS values.
T = Trace of Precipitation, MM = Missing Value Source: NWS Daily Summary

Daily Weather History Graph

Daily Weather History Graph

Search for Another Location

Airport or City:

Trip Planner

Search our weather history database for the weather conditions in past years. The results will help you decide how hot, cold, wet, or windy it might be!

Date:

Astronomy

May. 31, 2012 Rise Set
Actual Time 6:34 AM EDT 8:21 PM EDT
Civil Twilight 6:08 AM EDT 8:48 PM EDT
Nautical Twilight 5:37 AM EDT 9:19 PM EDT
Astronomical Twilight 5:03 AM EDT 9:53 PM EDT
Moon 4:25 PM EDT (5/31) 3:12 AM EDT (5/31)
Length of Visible Light 14h 39m
Length of Day
13h 46m
Waxing Gibbous, 80% of the Moon is Illuminated
May 31
Waxing Gibbous
Jun 4
Full
Jun 11
Last Quarter
Jun 19
New
Jun 26
First Quarter

Hourly Weather History & Observations

Time (EDT) Temp. Heat Index Dew Point Humidity Pressure Visibility Wind Dir Wind Speed Gust Speed Precip Events Conditions
12:53 AM 80.1 °F 85.1 °F 75.0 °F 85% 29.88 in 10.0 mi West 5.8 mph - N/A   Clear
1:53 AM 80.1 °F 85.1 °F 75.0 °F 85% 29.88 in 10.0 mi West 3.5 mph - N/A   Clear
2:53 AM 80.1 °F 85.1 °F 75.0 °F 85% 29.88 in 10.0 mi West 4.6 mph - N/A   Partly Cloudy
3:53 AM 80.1 °F 85.1 °F 75.0 °F 85% 29.88 in 10.0 mi West 3.5 mph - N/A   Clear
4:53 AM 80.1 °F 85.1 °F 75.0 °F 85% 29.87 in 10.0 mi WNW 3.5 mph - N/A   Clear
5:53 AM 79.0 °F - 75.0 °F 88% 29.87 in 10.0 mi Calm Calm - N/A   Clear
6:53 AM 80.1 °F 85.1 °F 75.0 °F 85% 29.87 in 10.0 mi Calm Calm - N/A   Clear
7:53 AM 80.1 °F 85.1 °F 75.0 °F 85% 29.88 in 10.0 mi Calm Calm - N/A   Clear
8:53 AM 81.0 °F 86.2 °F 73.9 °F 79% 29.90 in 10.0 mi Calm Calm - N/A   Partly Cloudy
10:53 AM 82.9 °F 88.8 °F 73.0 °F 72% 29.91 in 10.0 mi WSW 6.9 mph - N/A   Scattered Clouds
11:53 AM 84.9 °F 91.4 °F 73.0 °F 67% 29.91 in 10.0 mi SSW 11.5 mph 17.3 mph N/A   Partly Cloudy
12:53 PM 84.0 °F 90.2 °F 73.0 °F 69% 29.91 in 10.0 mi SW 9.2 mph - N/A   Scattered Clouds
1:06 PM 84.2 °F 90.9 °F 73.4 °F 70% 29.91 in 10.0 mi WSW 5.8 mph - N/A   Mostly Cloudy
1:15 PM 84.2 °F 89.6 °F 71.6 °F 66% 29.91 in 10.0 mi West 8.1 mph - N/A   Scattered Clouds
1:53 PM 84.0 °F 89.6 °F 72.0 °F 67% 29.90 in 10.0 mi WSW 6.9 mph 17.3 mph N/A   Partly Cloudy
2:53 PM 84.0 °F 89.6 °F 72.0 °F 67% 29.88 in 10.0 mi WSW 11.5 mph - N/A   Clear
3:53 PM 84.0 °F 89.0 °F 71.1 °F 65% 29.87 in 10.0 mi WSW 10.4 mph - N/A   Clear
4:53 PM 82.9 °F 88.0 °F 72.0 °F 69% 29.86 in 10.0 mi West 11.5 mph - N/A   Clear
5:53 PM 82.0 °F 85.9 °F 70.0 °F 67% 29.88 in 10.0 mi WSW 13.8 mph - N/A   Clear
6:53 PM 82.0 °F 86.3 °F 71.1 °F 69% 29.88 in 10.0 mi WSW 12.7 mph 19.6 mph N/A   Clear
8:53 PM 81.0 °F 85.8 °F 73.0 °F 77% 29.89 in 10.0 mi WSW 9.2 mph - N/A   Clear
9:53 PM 81.0 °F 85.2 °F 72.0 °F 74% 29.90 in 10.0 mi SW 4.6 mph - N/A   Partly Cloudy
10:53 PM 80.1 °F 83.8 °F 72.0 °F 76% 29.93 in 10.0 mi SW 8.1 mph - N/A   Partly Cloudy
11:53 PM 80.1 °F 84.2 °F 73.0 °F 79% 29.93 in 10.0 mi SW 8.1 mph - 0.00 in   Scattered Clouds